#�ϑ�����,���ϕ���,���ϕ���,�ő啗��,�ő啗����������,�ő�u�ԕ���,�ő�u�ԕ�����������
#(�N����),(m/s)   ,(16����),(m/s)   ,(16����)        ,(m/s)       ,(16����)            
2012/9/18 0:01,2.2,5,2.3,5,3.1,6
2012/9/18 0:02,2.1,5,2.2,5,2.9,6
2012/9/18 0:03,2.1,5,2.1,5,3.7,5
2012/9/18 0:04,2,5,2.1,4,3.6,6
2012/9/18 0:05,2,5,2,5,3.3,5
2012/9/18 0:06,2,5,2,5,3.1,5
2012/9/18 0:07,2,5,2.1,5,2.2,5
2012/9/18 0:08,2,5,2,5,3.6,5
2012/9/18 0:09,2.1,5,2.1,5,4.4,6
2012/9/18 0:10,2.1,5,2.1,5,3.9,3
2012/9/18 0:11,2.1,5,2.1,5,3.6,6
2012/9/18 0:12,2.1,5,2.1,5,2.6,7
2012/9/18 0:13,2.1,5,2.1,5,3.2,6
2012/9/18 0:14,2.2,5,2.2,5,3.1,7
2012/9/18 0:15,2.1,5,2.2,5,3.2,5
2012/9/18 0:16,2,6,2.1,5,2.4,7
2012/9/18 0:17,2,6,2,5,2.1,7
2012/9/18 0:18,2,6,2,5,2.7,6
2012/9/18 0:19,1.9,6,2,5,2.7,6
2012/9/18 0:20,1.8,6,1.9,5,1.1,8
2012/9/18 0:21,1.7,6,1.7,5,3.1,8
2012/9/18 0:22,1.8,7,1.8,5,2.9,8
2012/9/18 0:23,1.7,7,1.8,5,3.9,8
2012/9/18 0:24,1.7,7,1.7,5,3.2,8
2012/9/18 0:25,1.7,7,1.7,5,2.9,9
2012/9/18 0:26,1.6,7,1.6,6,2.7,7
2012/9/18 0:27,1.7,7,1.7,6,3.9,8
2012/9/18 0:28,1.8,7,1.8,6,3.9,7
2012/9/18 0:29,1.9,8,1.9,6,4.1,7
2012/9/18 0:30,2,7,2,8,3.1,6
2012/9/18 0:31,2,8,2,8,3.2,7
2012/9/18 0:32,2,8,2,8,4.1,9
2012/9/18 0:33,1.9,8,2,8,3.2,8
2012/9/18 0:34,2,8,2,8,3.5,8
2012/9/18 0:35,2,8,2,8,2.2,7
2012/9/18 0:36,2,8,2,8,2.2,8
2012/9/18 0:37,2,8,2,8,3.2,6
2012/9/18 0:38,2,8,2,8,4.7,7
2012/9/18 0:39,1.9,8,2,8,3.7,7
2012/9/18 0:40,2.1,8,2.1,8,3.9,7
2012/9/18 0:41,2.1,8,2.1,8,4.1,8
2012/9/18 0:42,2.2,8,2.2,8,3.5,8
2012/9/18 0:43,2.1,8,2.2,8,2.4,7
2012/9/18 0:44,2,8,2.1,8,1,7
2012/9/18 0:45,1.9,8,2,8,2,8
2012/9/18 0:46,1.9,8,1.9,8,2.9,7
2012/9/18 0:47,2.1,8,2.1,8,4.4,8
2012/9/18 0:48,2,8,2.1,8,3.6,7
2012/9/18 0:49,1.9,8,2,8,2.6,8
2012/9/18 0:50,1.8,7,1.9,8,2.2,6
2012/9/18 0:51,1.6,7,1.8,8,2.9,6
2012/9/18 0:52,1.6,7,1.6,8,2.7,6
2012/9/18 0:53,1.6,7,1.6,8,1.1,6
2012/9/18 0:54,1.5,7,1.6,8,1.4,6
2012/9/18 0:55,1.6,6,1.6,8,2.1,7
2012/9/18 0:56,1.6,6,1.6,8,2,4
2012/9/18 0:57,1.5,6,1.5,8,3.2,5
2012/9/18 0:58,1.5,5,1.5,8,3.6,4
2012/9/18 0:59,1.6,5,1.6,8,3.5,5
2012/9/18 1:00,1.7,5,1.7,7,3,5
2012/9/18 1:01,1.8,5,1.8,5,4.3,5
2012/9/18 1:02,1.9,5,1.9,5,3.9,3
2012/9/18 1:03,2.1,4,2.1,4,4.3,4
2012/9/18 1:04,2.3,4,2.3,4,3.8,4
2012/9/18 1:05,2.4,4,2.4,4,3.9,3
2012/9/18 1:06,2.5,4,2.5,4,5.4,5
2012/9/18 1:07,2.5,4,2.5,4,4.4,6
2012/9/18 1:08,2.5,4,2.6,4,3.8,5
2012/9/18 1:09,2.5,4,2.6,4,3,3
2012/9/18 1:10,2.4,4,2.5,4,1.8,4
2012/9/18 1:11,2.3,4,2.4,4,2.9,3
2012/9/18 1:12,2.2,4,2.3,4,3.3,2
2012/9/18 1:13,2.1,4,2.2,4,3.2,5
2012/9/18 1:14,2,4,2.1,4,3.2,3
2012/9/18 1:15,2.1,3,2.1,4,3.3,2
2012/9/18 1:16,2,3,2.1,4,3.6,5
2012/9/18 1:17,1.9,3,2,4,3,3
2012/9/18 1:18,1.9,3,1.9,4,2.9,3
2012/9/18 1:19,1.9,3,1.9,4,3.2,3
2012/9/18 1:20,1.9,3,1.9,4,2.4,4
2012/9/18 1:21,1.8,3,1.9,4,2.2,3
2012/9/18 1:22,1.7,3,1.8,4,1.5,1
2012/9/18 1:23,1.7,3,1.7,4,2.1,4
2012/9/18 1:24,1.6,2,1.7,3,2.4,1
2012/9/18 1:25,1.6,3,1.6,3,2.6,4
2012/9/18 1:26,1.5,3,1.6,3,2,3
2012/9/18 1:27,1.5,3,1.5,3,2.1,4
2012/9/18 1:28,1.4,3,1.5,3,2.1,3
2012/9/18 1:29,1.4,3,1.5,3,2.4,3
2012/9/18 1:30,1.4,3,1.4,3,2.5,3
2012/9/18 1:31,1.5,3,1.5,3,3.3,3
2012/9/18 1:32,1.6,3,1.6,3,2.6,3
2012/9/18 1:33,1.6,3,1.6,3,1.6,5
2012/9/18 1:34,1.6,4,1.6,2,2.9,5
2012/9/18 1:35,1.6,4,1.6,3,2.7,5
2012/9/18 1:36,1.7,4,1.7,4,3.2,5
2012/9/18 1:37,1.7,4,1.7,4,2.7,5
2012/9/18 1:38,1.8,4,1.8,4,3.8,5
2012/9/18 1:39,1.9,4,1.9,4,4.4,5
2012/9/18 1:40,1.9,5,1.9,4,3.5,5
2012/9/18 1:41,2,5,2,5,3.5,5
2012/9/18 1:42,2,5,2,5,2.1,5
2012/9/18 1:43,2,5,2,5,2.1,6
2012/9/18 1:44,2,5,2,5,3.6,5
2012/9/18 1:45,2.1,5,2.1,5,3.3,6
2012/9/18 1:46,2.1,5,2.1,5,2.5,5
2012/9/18 1:47,2,5,2.1,5,1.6,7
2012/9/18 1:48,1.9,5,2,5,3.2,5
2012/9/18 1:49,2,5,2,5,4.7,4
2012/9/18 1:50,2.1,5,2.1,5,3.8,5
2012/9/18 1:51,2.1,5,2.1,5,2.9,6
2012/9/18 1:52,2.1,5,2.1,5,2.1,4
2012/9/18 1:53,2.1,5,2.1,5,2.9,4
2012/9/18 1:54,2,5,2.1,5,2.9,4
2012/9/18 1:55,2,5,2,5,3.8,5
2012/9/18 1:56,2.1,5,2.1,5,2.7,5
2012/9/18 1:57,2.3,5,2.3,5,4.1,6
2012/9/18 1:58,2.3,5,2.3,5,3.6,6
2012/9/18 1:59,2.2,5,2.3,5,3.6,6
2012/9/18 2:00,2.1,5,2.2,5,2.4,4
2012/9/18 2:01,2.1,5,2.1,5,3.7,6
2012/9/18 2:02,2.3,5,2.3,5,5,6
2012/9/18 2:03,2.3,5,2.3,5,3.1,5
2012/9/18 2:04,2.4,6,2.4,5,4.3,6
2012/9/18 2:05,2.4,6,2.4,5,3.1,6
2012/9/18 2:06,2.5,6,2.5,6,4.2,6
2012/9/18 2:07,2.4,6,2.5,6,3.5,6
2012/9/18 2:08,2.5,6,2.5,6,3.8,5
2012/9/18 2:09,2.4,6,2.5,6,3.9,6
2012/9/18 2:10,2.4,5,2.4,6,3.6,5
2012/9/18 2:11,2.6,6,2.6,5,4.1,6
2012/9/18 2:12,2.5,6,2.6,5,4.1,6
2012/9/18 2:13,2.5,5,2.5,5,3.6,5
2012/9/18 2:14,2.5,5,2.6,5,3.7,5
2012/9/18 2:15,2.4,6,2.4,5,1.9,6
2012/9/18 2:16,2.2,5,2.3,5,2.4,7
2012/9/18 2:17,2.3,6,2.3,5,3.5,6
2012/9/18 2:18,2.2,6,2.3,5,2.7,6
2012/9/18 2:19,2.2,6,2.2,5,3.5,6
2012/9/18 2:20,2.2,6,2.2,5,3.5,6
2012/9/18 2:21,2.1,6,2.2,6,3.5,4
2012/9/18 2:22,2,6,2,5,3.1,7
2012/9/18 2:23,2,6,2,5,3.9,5
2012/9/18 2:24,1.9,6,2,5,2.9,4
2012/9/18 2:25,2,6,2,5,2.7,5
2012/9/18 2:26,2,6,2,5,2.1,5
2012/9/18 2:27,2.1,6,2.1,6,4.4,5
2012/9/18 2:28,2.1,5,2.1,6,3.6,5
2012/9/18 2:29,1.9,5,2.1,6,2,4
2012/9/18 2:30,1.8,5,1.9,6,2,5
2012/9/18 2:31,1.8,5,1.8,6,2.4,5
2012/9/18 2:32,1.7,5,1.8,6,1.5,4
2012/9/18 2:33,1.6,5,1.7,6,1.8,4
2012/9/18 2:34,1.6,5,1.6,6,1.8,2
2012/9/18 2:35,1.5,5,1.5,6,1.6,4
2012/9/18 2:36,1.5,5,1.5,6,2.4,4
2012/9/18 2:37,1.3,5,1.4,6,2.1,6
2012/9/18 2:38,1.3,5,1.3,5,3.2,7
2012/9/18 2:39,1.4,5,1.4,5,3,8
2012/9/18 2:40,1.5,6,1.5,5,3.7,8
2012/9/18 2:41,1.5,6,1.5,5,2.7,9
2012/9/18 2:42,1.6,7,1.6,5,3.3,8
2012/9/18 8:17,0,8,0,8,0,8
2012/9/18 8:18,0,6,0,8,0.1,15
2012/9/18 8:19,0,6,0,8,0,3
2012/9/18 8:20,0,4,0,8,0.1,1
2012/9/18 8:21,0.1,3,0.1,3,0.8,2
2012/9/18 8:22,0.2,2,0.2,3,1.1,2
2012/9/18 8:23,0.3,2,0.3,2,1.3,1
2012/9/18 8:24,0.4,2,0.4,2,1.8,2
2012/9/18 8:25,0.4,2,0.4,2,1.8,2
2012/9/18 8:26,0.5,2,0.5,2,2.1,1
2012/9/18 8:27,0.6,2,0.6,2,1.5,1
2012/9/18 8:28,0.6,2,0.6,2,1.9,2
2012/9/18 8:29,0.7,1,0.7,2,1.4,1
2012/9/18 8:30,0.8,1,0.8,1,1.4,16
2012/9/18 8:31,0.8,1,0.9,1,1.3,16
2012/9/18 8:32,0.8,1,0.9,1,1.6,16
2012/9/18 8:33,0.9,1,0.9,1,1.6,2
2012/9/18 8:34,0.8,1,0.9,1,1.5,2
2012/9/18 8:35,0.8,1,0.8,1,0.8,16
2012/9/18 8:36,0.7,1,0.8,1,0.6,16
2012/9/18 8:37,0.7,1,0.7,1,0.6,16
2012/9/18 8:38,0.6,1,0.6,1,0.6,16
2012/9/18 8:39,0.5,1,0.6,1,0.8,16
2012/9/18 8:40,0.5,1,0.5,1,0.6,15
2012/9/18 8:41,0.5,1,0.5,1,1,2
2012/9/18 8:42,0.5,1,0.5,1,1.1,3
2012/9/18 8:43,0.5,1,0.5,1,1.1,2
2012/9/18 8:44,0.5,1,0.5,1,1,2
2012/9/18 8:45,0.4,1,0.5,1,0.9,15
2012/9/18 8:46,0.4,1,0.4,1,0.5,1
2012/9/18 8:47,0.5,1,0.5,1,1.6,1
2012/9/18 8:48,0.6,1,0.6,1,1.5,3
2012/9/18 8:49,0.6,1,0.6,1,1.3,2
2012/9/18 8:50,0.6,2,0.6,1,0.8,3
2012/9/18 8:51,0.6,2,0.6,1,1.4,3
2012/9/18 8:52,0.6,2,0.6,1,1.8,3
2012/9/18 8:53,0.7,2,0.7,2,1.9,3
2012/9/18 8:54,0.8,2,0.8,2,2.2,3
2012/9/18 8:55,0.9,2,0.9,2,2.1,3
2012/9/18 8:56,1,2,1,2,2.1,3
2012/9/18 8:57,1,2,1,2,1.9,2
2012/9/18 8:58,1,2,1,2,2.1,2
2012/9/18 8:59,1.1,2,1.1,2,2.2,3
2012/9/18 9:00,1.3,3,1.3,3,2.4,2
2012/9/18 9:01,1.3,3,1.3,3,1.8,3
2012/9/18 9:02,1.3,3,1.3,3,1.9,3
2012/9/18 9:03,1.3,3,1.3,3,2.1,3
2012/9/18 9:04,1.4,3,1.4,3,2.4,4
2012/9/18 9:05,1.4,3,1.5,3,2.6,3
2012/9/18 9:06,1.5,3,1.5,3,2.4,4
2012/9/18 9:07,1.5,3,1.5,3,2.4,4
2012/9/18 9:08,1.5,3,1.5,3,2.6,3
2012/9/18 9:09,1.6,3,1.6,3,2.5,3
2012/9/18 9:10,1.5,3,1.6,3,2,4
2012/9/18 9:11,1.5,3,1.5,3,2,4
2012/9/18 9:12,1.6,4,1.6,3,1.6,5
2012/9/18 9:13,1.5,4,1.6,3,1.5,6
2012/9/18 9:14,1.4,4,1.5,3,1.6,7
2012/9/18 9:15,1.3,4,1.4,3,1.1,9
2012/9/18 9:16,1.3,5,1.3,3,1.9,6
2012/9/18 9:17,1.3,5,1.3,3,2.7,7
2012/9/18 9:18,1.2,5,1.3,3,1.3,7
2012/9/18 9:19,1.2,6,1.2,3,1.5,5
2012/9/18 9:20,1.1,6,1.2,4,1.6,5
2012/9/18 9:21,1.1,6,1.1,4,1.5,4
2012/9/18 9:22,1,6,1.1,4,1.3,4
2012/9/18 9:23,1,5,1,4,1.3,6
2012/9/18 9:24,1,5,1,4,0.9,6
2012/9/18 9:25,1,5,1,4,0.6,5
2012/9/18 9:26,0.9,5,1,5,0.9,1
2012/9/18 9:27,0.8,4,0.9,5,1.6,2
2012/9/18 9:28,0.8,4,0.9,5,1.8,2
2012/9/18 9:29,0.7,3,0.8,6,0.5,16
2012/9/18 9:30,0.7,3,0.7,6,0.9,3
2012/9/18 9:31,0.7,3,0.7,6,1,2
2012/9/18 9:32,0.7,3,0.7,6,1.5,2
2012/9/18 9:33,0.6,2,0.7,5,1,4
2012/9/18 9:34,0.6,2,0.6,5,1.3,3
2012/9/18 9:35,0.7,2,0.7,5,2,3
2012/9/18 9:36,0.8,2,0.8,5,1.5,5
2012/9/18 9:37,0.8,3,0.9,4,1.9,3
2012/9/18 9:38,0.9,3,0.9,3,2.4,4
2012/9/18 9:39,1.1,3,1.1,3,2.7,6
2012/9/18 9:40,1.3,3,1.3,3,3.1,5
2012/9/18 9:41,1.3,4,1.3,3,2.7,8
2012/9/18 9:42,1.4,4,1.4,4,2.4,5
2012/9/18 9:43,1.6,5,1.6,4,2.7,5
2012/9/18 9:44,1.7,5,1.7,5,2.4,6
2012/9/18 9:45,1.7,5,1.7,5,2.5,6
2012/9/18 9:46,1.8,5,1.8,5,2.1,4
2012/9/18 9:47,1.8,5,1.8,5,1.8,6
2012/9/18 9:48,1.8,5,1.8,5,2.4,6
2012/9/18 9:49,1.7,6,1.8,5,2.5,6
2012/9/18 9:50,1.6,6,1.7,5,1.5,5
2012/9/18 9:51,1.7,5,1.7,5,4.7,5
2012/9/18 9:52,1.7,5,1.7,5,2.7,5
2012/9/18 9:53,1.6,5,1.7,5,2.5,3
2012/9/18 9:54,1.7,5,1.7,5,3,5
2012/9/18 9:55,1.7,5,1.8,5,3.9,5
2012/9/18 9:56,1.7,5,1.7,5,2.1,5
2012/9/18 9:57,1.9,5,1.9,5,3.8,6
2012/9/18 9:58,1.9,5,1.9,5,3.6,6
2012/9/18 9:59,2,5,2,5,3,6
2012/9/18 10:00,2,5,2,5,2.5,4
2012/9/18 10:01,1.9,5,2,5,3,4
2012/9/18 10:02,1.9,5,1.9,5,2.5,5
2012/9/18 10:03,1.8,5,1.9,5,3.2,6
2012/9/18 10:04,1.9,6,1.9,5,3.8,6
2012/9/18 10:05,1.8,6,1.9,5,1.9,7
2012/9/18 10:06,1.8,6,1.8,5,2.7,8
2012/9/18 10:07,1.8,6,1.8,5,3.3,6
2012/9/18 10:08,1.6,6,1.7,5,2,6
2012/9/18 10:09,1.5,6,1.6,5,1.4,6
2012/9/18 10:10,1.5,6,1.5,5,2,6
2012/9/18 10:11,1.4,6,1.5,5,2.2,4
2012/9/18 10:12,1.3,6,1.4,5,1.9,6
2012/9/18 10:13,1.4,6,1.5,5,3,6
2012/9/18 10:14,1.4,6,1.5,6,2.5,6
2012/9/18 10:15,1.5,6,1.5,6,2.5,5
2012/9/18 10:16,1.5,6,1.5,6,2.4,4
2012/9/18 10:17,1.4,6,1.4,6,3.1,8
2012/9/18 10:18,1.6,6,1.6,6,3.9,5
2012/9/18 10:19,1.9,6,1.9,6,4.7,5
2012/9/18 10:20,2.1,6,2.1,6,3.8,6
2012/9/18 10:21,2.1,6,2.1,6,3.2,5
2012/9/18 10:22,2.2,5,2.2,6,3.7,4
2012/9/18 10:23,2.3,5,2.3,5,3.3,5
2012/9/18 10:24,2.3,5,2.3,5,4.4,6
2012/9/18 10:25,2.3,5,2.3,5,2.7,6
2012/9/18 10:26,2.4,5,2.4,5,3.5,5
2012/9/18 10:27,2.5,5,2.5,5,3.7,7
2012/9/18 10:28,2.4,5,2.5,5,3.6,4
2012/9/18 10:29,2.4,5,2.4,5,3.8,6
2012/9/18 10:30,2.3,5,2.4,5,3.3,5
2012/9/18 10:31,2.4,5,2.4,5,3.1,5
2012/9/18 10:32,2.4,5,2.4,5,3.7,4
2012/9/18 10:33,2.5,5,2.5,5,4.2,5
2012/9/18 10:34,2.4,5,2.5,5,4.2,5
2012/9/18 10:35,2.5,5,2.5,5,3.2,3
2012/9/18 10:36,2.5,5,2.5,5,3.9,3
2012/9/18 10:37,2.5,4,2.5,5,3.3,6
2012/9/18 10:38,2.4,4,2.5,5,3.2,3
2012/9/18 10:39,2.4,4,2.4,5,2.7,4
2012/9/18 10:40,2.4,4,2.4,5,3.9,4
2012/9/18 10:41,2.5,4,2.5,5,4.2,3
2012/9/18 10:42,2.6,4,2.6,4,5.1,5
2012/9/18 10:43,2.5,4,2.6,4,3,4
2012/9/18 10:44,2.5,4,2.5,4,2.7,4
2012/9/18 10:45,2.5,4,2.5,4,2.7,4
2012/9/18 10:46,2.4,4,2.4,4,3.1,4
2012/9/18 10:47,2.4,4,2.4,4,3.2,4
2012/9/18 10:48,2.4,4,2.4,4,3,4
2012/9/18 10:49,2.3,4,2.4,4,2.9,4
2012/9/18 10:50,2.2,5,2.3,4,2.9,6
2012/9/18 10:51,2.2,5,2.2,4,3.9,4
2012/9/18 10:52,2.2,5,2.2,4,3.5,4
2012/9/18 10:53,2.1,5,2.2,4,2.2,6
2012/9/18 10:54,2.1,5,2.1,4,2.7,6
2012/9/18 10:55,2.1,5,2.1,4,3.2,4
2012/9/18 10:56,2.1,5,2.2,4,2.9,6
2012/9/18 10:57,2,6,2.1,4,1.4,7
2012/9/18 10:58,1.9,6,2,4,1.8,7
2012/9/18 10:59,1.9,6,1.9,4,2.4,4
2012/9/18 11:00,1.8,5,1.9,5,2.4,6
2012/9/18 11:01,1.7,6,1.8,5,2,7
2012/9/18 11:02,1.5,6,1.7,5,1.4,6
2012/9/18 11:03,1.5,6,1.5,5,1.5,6
2012/9/18 11:04,1.4,6,1.5,5,2.6,6
2012/9/18 11:05,1.4,6,1.4,5,3.6,5
2012/9/18 11:06,1.5,6,1.5,5,4.7,6
2012/9/18 11:07,1.8,6,1.8,6,4.5,5
2012/9/18 11:08,2,6,2,6,3.7,6
2012/9/18 11:09,2,6,2,6,2.1,7
2012/9/18 11:10,1.9,6,2,6,2.4,8
2012/9/18 11:11,2,6,2,6,3,6
2012/9/18 11:12,2,6,2,6,1.9,4
2012/9/18 11:13,2.1,6,2.1,6,2.9,6
2012/9/18 11:14,2.1,6,2.1,6,2.5,6
2012/9/18 11:15,1.9,6,2.1,6,2.2,9
2012/9/18 11:16,1.8,6,1.9,6,2.1,8
2012/9/18 11:17,1.5,7,1.7,6,1.8,6
2012/9/18 11:18,1.4,7,1.5,6,3.7,7
2012/9/18 11:19,1.5,7,1.5,6,3.7,7
2012/9/18 11:20,1.6,7,1.6,6,3.9,7
2012/9/18 11:21,1.7,7,1.7,6,3.8,7
2012/9/18 11:22,1.7,7,1.7,6,3.2,9
2012/9/18 11:23,1.7,7,1.7,6,2.1,7
2012/9/18 11:24,1.8,7,1.8,6,2.9,7
2012/9/18 11:25,1.8,7,1.8,6,2.1,7
2012/9/18 11:26,1.8,7,1.8,7,2.5,9
2012/9/18 11:27,1.8,7,1.8,7,2.4,8
2012/9/18 11:28,1.8,7,1.8,7,3.8,8
2012/9/18 11:29,1.7,8,1.8,7,2.9,8
2012/9/18 11:30,1.6,7,1.7,7,1.9,6
2012/9/18 11:31,1.5,8,1.6,7,2.5,6
2012/9/18 11:32,1.6,7,1.6,7,4.9,6
2012/9/18 11:33,1.8,7,1.8,7,5.2,7
2012/9/18 11:34,1.8,7,1.8,7,3.9,4
2012/9/18 11:35,1.9,7,1.9,7,2.6,6
2012/9/18 11:36,2,6,2,7,3.9,6
2012/9/18 11:37,2.2,6,2.2,6,3.7,5
2012/9/18 11:38,2.2,6,2.2,6,3.3,5
2012/9/18 11:39,2.3,6,2.3,6,3.1,5
2012/9/18 11:40,2.4,5,2.4,6,3.7,6
2012/9/18 11:41,2.4,5,2.4,6,3,5
2012/9/18 11:42,2.3,5,2.4,6,2.6,6
2012/9/18 11:43,2.2,5,2.3,6,2.7,7
2012/9/18 11:44,2.1,5,2.2,6,3.2,7
2012/9/18 11:45,2.1,6,2.1,6,2.7,7
2012/9/18 11:46,2.1,6,2.1,6,4.2,8
2012/9/18 11:47,1.9,6,2.1,6,2.9,8
2012/9/18 11:48,1.8,6,1.9,6,2,7
2012/9/18 11:49,1.7,6,1.8,6,2.7,6
2012/9/18 11:50,1.7,6,1.7,5,3.3,6
2012/9/18 11:51,1.6,7,1.7,5,2.5,6
2012/9/18 11:52,1.5,7,1.6,5,0.8,10
2012/9/18 11:53,1.4,7,1.4,5,2.6,8
2012/9/18 11:54,1.4,7,1.4,5,2.5,7
2012/9/18 11:55,1.5,7,1.5,6,3.5,7
2012/9/18 11:56,1.5,7,1.5,6,4.2,7
2012/9/18 11:57,1.7,7,1.7,6,4.2,7
2012/9/18 11:58,1.7,7,1.7,6,2.2,8
2012/9/18 11:59,1.6,7,1.7,6,1.9,6
2012/9/18 12:00,1.5,7,1.6,6,1.6,6
2012/9/18 12:01,1.5,7,1.5,7,2.2,8
2012/9/18 12:02,1.6,7,1.6,7,2.7,8
2012/9/18 13:44,0.9,8,0.9,8,0.9,8
2012/9/18 13:45,0.6,6,0.9,8,0.9,8
2012/9/18 13:46,0.5,8,0.5,8,1,8
2012/9/18 13:47,0.5,11,0.5,8,1.1,11
2012/9/18 13:48,0.6,12,0.6,8,1.3,15
2012/9/18 13:49,0.7,12,0.7,8,1.5,10
2012/9/18 13:50,0.7,12,0.7,8,1.5,12
2012/9/18 13:51,0.7,12,0.7,8,1.5,10
2012/9/18 13:52,0.7,12,0.7,8,1,14
2012/9/18 13:53,0.7,12,0.7,8,1.1,12
2012/9/18 13:54,0.7,12,0.7,8,1.3,13
2012/9/18 13:55,0.7,12,0.7,12,1.1,12
2012/9/18 13:56,0.8,12,0.8,12,2,12
2012/9/18 13:57,0.9,12,0.9,12,2.6,13
2012/9/18 13:58,0.9,12,0.9,12,2.4,12
2012/9/18 13:59,1.1,13,1.1,13,2.5,13
2012/9/18 14:00,1.1,13,1.1,13,2.4,15
2012/9/18 14:01,1.2,13,1.2,13,2,12
2012/9/18 14:02,1.3,13,1.3,13,2.2,13
2012/9/18 14:03,1.3,13,1.3,13,1.9,16
2012/9/18 14:04,1.3,13,1.3,13,1.5,16
2012/9/18 14:05,1.3,14,1.3,13,0.6,12
2012/9/18 14:06,1.3,14,1.3,13,2.7,14
2012/9/18 14:07,1.4,14,1.4,14,2.9,15
2012/9/18 14:08,1.5,14,1.5,14,3.9,15
2012/9/18 14:09,1.6,14,1.6,14,4.1,15
2012/9/18 14:10,1.8,14,1.8,14,3.8,13
2012/9/18 14:11,1.9,13,1.9,13,3.7,12
2012/9/18 14:12,1.9,13,1.9,13,2.4,13
2012/9/18 14:13,1.9,13,1.9,13,2.6,10
2012/9/18 14:14,2,12,2,12,3.5,9
2012/9/18 14:15,2.2,12,2.2,12,4.2,10
2012/9/18 14:16,2.3,12,2.3,12,3.5,10
2012/9/18 14:17,2.2,12,2.3,12,2.6,10
2012/9/18 14:18,2.1,12,2.2,12,3.3,13
2012/9/18 14:19,1.9,11,2.1,12,2.7,12
2012/9/18 14:20,1.8,11,1.9,12,3,9
2012/9/18 14:21,1.7,11,1.8,12,3,9
2012/9/18 14:22,1.7,10,1.7,12,2.7,9
2012/9/18 14:23,1.7,10,1.7,12,2.7,11
2012/9/18 14:24,1.7,10,1.7,12,2.4,10
2012/9/18 14:25,1.5,10,1.7,12,2,11
2012/9/18 14:26,1.4,10,1.5,12,1.8,9
2012/9/18 14:27,1.4,10,1.4,12,1.9,9
2012/9/18 14:28,1.2,10,1.4,12,0.5,8
2012/9/18 14:29,1.1,10,1.2,11,1.1,8
2012/9/18 14:30,1,10,1.1,11,1.3,9
2012/9/18 14:31,0.9,10,1,11,1.3,10
2012/9/18 14:32,0.8,10,0.9,10,0.4,10
2012/9/18 14:33,0.7,10,0.8,10,0.3,12
2012/9/18 14:34,0.5,10,0.6,10,0.1,9
2012/9/18 14:35,0.5,10,0.5,10,1.4,10
2012/9/18 14:36,0.5,10,0.5,10,1.4,11
2012/9/18 14:37,0.4,11,0.5,10,1.3,14
2012/9/18 14:38,0.5,11,0.5,10,1.8,12
2012/9/18 14:39,0.6,11,0.6,10,1.1,13
2012/9/18 14:40,0.6,12,0.6,10,1.5,14
2012/9/18 14:41,0.7,12,0.7,10,1.8,13
2012/9/18 14:42,0.8,12,0.8,10,1.5,13
2012/9/18 14:43,0.9,13,0.9,13,1.3,14
2012/9/18 14:44,0.9,13,0.9,13,1.1,12
2012/9/18 14:45,1,13,1,13,1.5,13
2012/9/18 14:46,1,13,1,13,1.5,10
2012/9/18 14:47,1,13,1,13,1.4,11
2012/9/18 14:48,1,12,1,13,1.8,10
2012/9/18 14:49,1.1,12,1.1,12,2.1,11
2012/9/18 14:50,1.2,12,1.2,12,2.2,12
2012/9/18 14:51,1.1,12,1.2,12,1.5,12
2012/9/18 14:52,1,12,1.1,12,0.5,8
2012/9/18 14:53,0.9,12,1,12,0.3,7
2012/9/18 14:54,0.9,12,0.9,12,1.8,11
2012/9/18 14:55,0.9,12,0.9,12,1.4,11
2012/9/18 14:56,0.8,12,0.9,12,0.8,14
2012/9/18 14:57,0.8,12,0.8,12,1.5,12
2012/9/18 14:58,0.9,12,0.9,12,2.4,10
2012/9/18 14:59,0.8,12,0.9,12,1.8,10
2012/9/18 15:00,0.8,12,0.8,12,1.5,10
2012/9/18 15:01,0.7,12,0.8,12,0.6,9
2012/9/18 15:02,0.8,11,0.8,12,1.6,7
2012/9/18 15:03,0.9,11,0.9,12,2.2,7
2012/9/18 15:04,1.1,10,1.1,10,3.2,6
2012/9/18 15:05,1.5,9,1.5,9,7,6
2012/9/18 15:06,1.7,8,1.7,9,5.7,6
2012/9/18 15:07,2,8,2,8,5.6,9
2012/9/18 15:08,2.2,8,2.2,8,6,8
2012/9/18 15:09,2.3,8,2.3,8,5,10
2012/9/18 15:10,2.6,8,2.6,8,5.8,8
2012/9/18 15:11,2.9,8,2.9,8,7.7,9
2012/9/18 15:12,3,8,3,8,4.9,9
2012/9/18 15:13,3,8,3,8,3.3,7
2012/9/18 15:14,3,9,3,8,3.5,9
2012/9/18 15:15,2.8,9,3,8,6.4,9
2012/9/18 15:16,2.8,9,2.8,8,6.2,9
2012/9/18 15:17,2.6,9,2.8,8,3.3,9
2012/9/18 15:18,2.5,9,2.6,8,5.4,9
2012/9/18 15:19,2.6,9,2.6,8,4.4,9
2012/9/18 15:20,2.4,9,2.5,8,3.5,9
2012/9/18 15:21,2.3,9,2.4,8,3.1,10
2012/9/18 15:22,2.2,9,2.3,8,2.7,10
2012/9/18 15:23,2.3,9,2.3,8,5.1,9
2012/9/18 15:24,2.3,9,2.4,9,3.6,9
2012/9/18 15:25,2.2,9,2.3,9,3,8
2012/9/18 15:26,2,9,2.1,9,2.5,8
2012/9/18 15:27,2.1,9,2.1,9,3.2,10
2012/9/18 15:28,2.1,9,2.1,9,3.7,10
2012/9/18 15:29,2,9,2.1,9,3.5,9
2012/9/18 15:30,1.9,9,2,9,3.2,9
2012/9/18 15:31,1.8,9,1.9,9,1.5,7
2012/9/18 15:32,1.7,9,1.8,9,0.8,8
2012/9/18 15:33,1.4,8,1.6,9,1.5,3
2012/9/18 15:34,1.3,8,1.4,9,1.6,3
2012/9/18 15:35,1.3,8,1.3,9,1.5,7
2012/9/18 15:36,1.2,7,1.3,9,1.1,6
2012/9/18 15:37,1,7,1.2,9,1.5,8
2012/9/18 15:38,0.8,7,1,9,1.5,9
2012/9/18 15:39,0.8,7,0.8,9,2.2,6
2012/9/18 15:40,0.9,7,0.9,9,3.3,7
2012/9/18 15:41,1.1,7,1.1,9,3.9,7
2012/9/18 15:42,1.3,7,1.3,9,4.3,6
2012/9/18 15:43,1.5,7,1.5,7,4.4,5
2012/9/18 15:44,1.7,7,1.7,7,4.3,6
2012/9/18 15:45,2,7,2,7,6.3,7
2012/9/18 15:46,2.4,7,2.4,7,6.9,8
2012/9/18 15:47,2.7,7,2.7,7,5.6,8
2012/9/18 15:48,3,7,3,7,6.3,9
2012/9/18 15:49,3.1,7,3.1,7,5.7,9
2012/9/18 15:50,3.2,7,3.2,7,4.7,10
2012/9/18 15:51,3.2,8,3.2,7,4.7,9
2012/9/18 15:52,3.2,8,3.3,8,3.6,9
2012/9/18 15:53,2.9,8,3.2,8,1.8,9
2012/9/18 15:54,2.8,9,2.9,8,2.5,10
2012/9/18 15:55,2.5,9,2.8,8,2.5,9
2012/9/18 15:56,2.3,10,2.5,8,2.4,11
2012/9/18 15:57,2.1,10,2.2,8,1.6,15
2012/9/18 15:58,1.8,10,2.1,8,1.5,12
2012/9/18 15:59,1.6,10,1.8,8,1.5,11
2012/9/18 16:00,1.4,10,1.6,8,2,9
2012/9/18 16:01,1.2,11,1.4,8,2.7,8
2012/9/18 16:02,1,11,1.1,8,2.7,9
2012/9/18 16:03,1.2,11,1.2,8,3.3,11
2012/9/18 16:04,1.4,11,1.4,9,3.8,9
2012/9/18 16:05,1.5,11,1.5,9,4.2,9
2012/9/18 16:06,1.6,10,1.6,10,3.9,10
2012/9/18 16:07,1.6,10,1.6,10,3.2,9
2012/9/18 16:08,1.7,9,1.7,10,2.9,8
2012/9/18 16:09,1.7,9,1.7,10,3,9
2012/9/18 16:10,1.8,9,1.8,9,2.4,8
2012/9/18 16:11,1.9,9,1.9,9,3,9
2012/9/18 16:12,1.9,9,1.9,9,2.4,9
2012/9/18 16:13,1.7,9,1.9,9,1.9,8
2012/9/18 16:14,1.5,9,1.7,9,1.6,10
2012/9/18 16:15,1.3,9,1.5,9,2,10
2012/9/18 16:16,1.2,10,1.3,9,2,8
2012/9/18 16:17,1.1,10,1.2,9,1.5,8
2012/9/18 16:18,1,10,1.1,9,1.8,9
2012/9/18 16:19,1,10,1.1,9,2.9,10
2012/9/18 16:20,0.9,10,1,9,2.9,9
2012/9/18 16:21,0.9,9,0.9,9,2.6,8
2012/9/18 16:22,1,9,1,9,2.9,8
2012/9/18 16:23,1.1,9,1.1,9,2,9
2012/9/18 16:24,1.1,9,1.1,9,2.1,8
2012/9/18 16:25,1.2,9,1.2,9,1.8,8
2012/9/18 16:26,1.2,9,1.2,10,1.8,7
2012/9/18 16:27,1.3,9,1.3,9,1.9,8
2012/9/18 16:28,1.4,9,1.4,9,1.8,8
2012/9/18 16:29,1.4,8,1.4,9,2.1,8
2012/9/18 16:30,1.4,8,1.4,9,1.8,8
2012/9/18 16:31,1.3,8,1.4,9,1.1,8
2012/9/18 16:32,1.1,8,1.3,9,0.4,9
2012/9/18 16:33,1,8,1.1,9,0.8,10
2012/9/18 16:34,0.9,8,1,9,1.3,9
2012/9/18 16:35,0.9,8,0.9,9,1.1,10
2012/9/18 16:36,0.8,9,0.9,9,1.1,11
2012/9/18 16:37,0.8,9,0.8,9,2,11
2012/9/18 16:38,0.7,9,0.8,8,2.1,10
2012/9/18 16:39,0.7,9,0.7,8,2,9
2012/9/18 17:30,0.6,11,0.6,11,0.8,10
2012/9/18 17:31,0.3,11,0.6,11,0.8,10
2012/9/18 17:32,0.1,11,0.3,11,0.3,15
2012/9/18 17:33,0.2,11,0.2,11,0.8,8
2012/9/18 17:34,0.2,10,0.2,11,1.3,11
2012/9/18 17:35,0.7,10,0.7,10,2.9,10
2012/9/18 17:36,0.8,10,0.8,10,2.9,10
2012/9/18 17:37,1.1,10,1.1,10,4.5,8
2012/9/18 17:38,1.5,10,1.5,10,6.7,8
2012/9/18 17:39,1.8,9,1.8,9,5.2,8
2012/9/18 17:48,0.9,7,0.9,7,0.9,6
2012/9/18 17:49,1.5,8,1.5,8,2,8
2012/9/18 17:50,1.2,8,1.4,8,1.5,9
2012/9/18 17:51,0.8,9,1.1,8,0.4,9
2012/9/18 17:52,0.6,10,0.8,8,0.1,12
2012/9/18 17:53,0.6,9,0.6,8,1.3,7
2012/9/18 17:54,0.7,8,0.7,8,1.3,7
2012/9/18 17:55,0.7,8,0.7,8,1.1,6
2012/9/18 18:06,1.3,16,1.3,16,1.3,16
2012/9/18 18:07,1.5,1,1.5,1,2,2
2012/9/18 18:08,1.3,1,1.5,1,1.9,1
2012/9/18 18:09,1.2,16,1.3,1,1.9,14
2012/9/18 18:10,1.1,16,1.2,1,1.5,16
2012/9/18 18:11,1.2,16,1.2,1,2.5,2
2012/9/18 18:12,1.2,16,1.2,1,2,2
2012/9/18 18:13,1.2,16,1.2,1,2.2,2
2012/9/18 18:14,1.2,16,1.2,1,1.9,1
2012/9/18 18:39,0.6,1,0.6,1,0.8,1
2012/9/18 18:40,0.7,1,0.7,1,1,16
2012/9/18 18:41,0.7,1,0.8,1,1.1,16
2012/9/18 18:42,0.6,1,0.8,1,1,15
2012/9/18 18:43,0.6,1,0.6,1,1.1,16
2012/9/18 18:44,0.7,16,0.7,1,1.8,16
2012/9/18 18:45,0.9,16,0.9,16,1.8,16
2012/9/18 18:46,1,16,1,16,1.8,16
2012/9/18 18:47,1,16,1,16,1.9,15
2012/9/18 21:47,0,2,0,2,0,2
2012/9/18 21:48,0,2,0,2,0,2
2012/9/18 21:49,0,1,0,2,0.1,16
2012/9/18 21:50,0,16,0,2,0.1,15
2012/9/18 21:51,0.1,16,0.1,16,0.5,16
2012/9/18 21:52,0.1,16,0.1,16,0.6,16
2012/9/18 21:53,0.2,16,0.2,16,0.6,16
2012/9/18 21:54,0.2,1,0.2,16,0.5,1
2012/9/18 21:55,0.2,1,0.2,16,0.8,2
2012/9/18 21:56,0.2,1,0.2,16,0.5,2
2012/9/18 21:57,0.2,1,0.2,16,0.5,1
2012/9/18 21:58,0.3,1,0.3,1,0.8,1
2012/9/18 21:59,0.3,1,0.3,1,0.5,1
2012/9/18 22:00,0.3,1,0.3,1,0.3,16
2012/9/18 22:01,0.3,1,0.3,1,0,1
2012/9/18 22:02,0.2,1,0.3,1,0.4,1
2012/9/18 22:03,0.2,1,0.2,1,0.3,1
2012/9/18 22:04,0.2,1,0.2,1,0.3,15
2012/9/18 22:05,0.2,16,0.2,1,0.6,16
2012/9/18 22:06,0.2,16,0.2,1,0.5,15
2012/9/18 22:07,0.2,16,0.2,1,0.8,16
2012/9/18 22:08,0.3,16,0.3,1,1,16
2012/9/18 22:09,0.3,16,0.3,1,1.1,16
2012/9/18 22:10,0.4,16,0.4,16,1,16
2012/9/18 22:11,0.5,16,0.5,16,0.9,1
2012/9/18 22:12,0.5,16,0.5,16,0.9,1
2012/9/18 22:13,0.6,16,0.6,16,1.5,1
2012/9/18 22:14,0.7,1,0.7,1,1.4,1
2012/9/18 22:15,0.8,1,0.8,1,1.4,2
2012/9/18 22:16,0.8,1,0.8,1,1.3,1
2012/9/18 22:17,0.9,1,0.9,1,1.4,1
2012/9/18 22:18,1,1,1,1,1.4,1
2012/9/18 22:19,1,1,1,1,1.5,16
2012/9/18 22:20,1,1,1,1,1.6,1
2012/9/18 22:21,1.1,1,1.1,1,2,16
2012/9/18 22:22,1.2,1,1.2,1,1.5,16
2012/9/18 23:16,0,12,0,12,0,12
2012/9/18 23:17,0.1,11,0.1,11,0.3,10
2012/9/18 23:18,0.2,12,0.2,12,0.4,12
2012/9/18 23:19,0.2,12,0.2,12,0.4,12
2012/9/18 23:20,0.2,12,0.2,12,0.4,12
2012/9/18 23:21,0.3,12,0.3,12,0.9,12
2012/9/18 23:22,0.4,12,0.4,12,1.4,12
2012/9/18 23:23,0.5,13,0.5,12,1.1,13
2012/9/18 23:24,0.5,13,0.5,12,0.9,14
2012/9/18 23:25,0.4,13,0.5,12,0.5,15
2012/9/18 23:26,0.4,13,0.4,12,0.8,13
2012/9/18 23:27,0.5,13,0.5,12,0.9,15
2012/9/18 23:28,0.5,13,0.5,12,0.6,15
2012/9/18 23:29,0.5,14,0.5,12,0.5,16
2012/9/18 23:30,0.5,14,0.5,12,0.4,16
2012/9/18 23:31,0.4,14,0.5,12,0.3,1
2012/9/18 23:32,0.4,15,0.4,12,0.4,1
2012/9/18 23:33,0.3,15,0.4,13,1.3,1
2012/9/18 23:34,0.4,16,0.4,13,1.3,1
2012/9/18 23:35,0.5,16,0.5,13,1.4,1
2012/9/18 23:36,0.6,16,0.6,16,1.6,16
